Index of /Information_Desk/Just_the_Facts/Kites_&_Gliders/Kites_&_Glider_images

[ICO]NameLast modifiedSizeDescription

[DIR]Parent Directory  -  
[IMG]1911-Wright-Glider-flying-over-sea_242.jpg04-Jun-2013 23:32 4.5K 
[IMG]1911-Wright-Glider-flying-high_242.jpg04-Jun-2013 23:32 4.0K 
[IMG]1901-Wright-glider-launching_242.jpg04-Jun-2013 23:32 4.8K 
[IMG]1901-Wright-glider-kited.jpg04-Jun-2013 23:32 109K 
[IMG]1911-Wright-Glider-in-flight-closeup_242.jpg04-Jun-2013 23:32 5.7K 
[IMG]1911-Wright-Glider-cockpit_242.jpg04-Jun-2013 23:32 8.2K 
[IMG]1902-Wright-glider-with-fixed-tail_242.jpg04-Jun-2013 23:32 4.1K 
[IMG]1902-Wright-glider-with-fixed-tail-from-side_242.jpg04-Jun-2013 23:32 4.5K 
[IMG]1902-Wright-glider-with-fixed-tail-from-side.jpg04-Jun-2013 23:32 110K 
[IMG]1902-Wright-glider-closed-to-ground-from-behind_242.jpg04-Jun-2013 23:32 5.5K 
[IMG]1911-Wright-Glider-prepared-for-flight_242.jpg04-Jun-2013 23:32 4.4K 
[IMG]1902-Wright-glider-closed-to-ground-from-behind.jpg04-Jun-2013 23:32 146K 
[IMG]1901-Wright-glider-flying_242.jpg04-Jun-2013 23:32 6.1K 
[IMG]1901-Wright-Glider-after-hard-landing_242.jpeg04-Jun-2013 23:32 5.1K 
[IMG]1911-Wright-Glider-cockpit.jpg04-Jun-2013 23:32 82K 
[IMG]1902-Wright-glider-making-a-hard-landing.jpg04-Jun-2013 23:33 150K 
[IMG]1902-Wright-glider-kited-from-front_242.jpg04-Jun-2013 23:33 6.4K 
[IMG]Tom-Tate-with-drum-fish-and-1900-Wright-glider.jpeg04-Jun-2013 23:33 61K 
[IMG]1902-Wright-glider-with-fixed-tail.jpg04-Jun-2013 23:33 83K 
[IMG]1902-Wright-Glider-launch_242.jpg04-Jun-2013 23:33 6.1K 
[IMG]1901-Wright-glider-launching.jpg04-Jun-2013 23:33 113K 
[IMG]Tom-Tate-with-drum-fish-and-1900-Wright-glider_242.jpeg04-Jun-2013 23:33 8.8K 
[IMG]1911-Wright-Glider-flying-high.jpg04-Jun-2013 23:33 24K 
[IMG]1901-Wright-glider-kited_242.jpg04-Jun-2013 23:33 7.1K 
[IMG]1900-Wright-Glider-kited-at-Kitty-Hawk.jpg04-Jun-2013 23:33 73K 
[IMG]1911-Wright-Glider-prepared-for-flight.jpg04-Jun-2013 23:33 46K 
[IMG]1911-Wright-Glider-in-flight-closeup.jpg04-Jun-2013 23:33 128K 
[IMG]1911-Wright-Glider-flying-over-sea.jpg04-Jun-2013 23:33 38K 
[IMG]1902-Wright-glider-with-Lamson-glider-in-distance.jpg04-Jun-2013 23:33 87K 
[IMG]1902-Wright-glider-kited.jpg04-Jun-2013 23:33 102K 
[IMG]1901-Wright-Glider-outside-shed_242.jpg04-Jun-2013 23:33 4.7K 
[IMG]1901-Wright-Glider-outside-shed.jpg04-Jun-2013 23:33 54K 
[IMG]1901-Wright-Glider-in-flight_242.jpg04-Jun-2013 23:33 4.9K 
[IMG]1899-Wright-Kite-Two-view_242.jpg04-Jun-2013 23:33 7.3K 
[IMG]1902-Wright-Glider-launch.jpg04-Jun-2013 23:33 155K 
[IMG]1902-Wright-glider-carried-up-hill_242.jpg04-Jun-2013 23:33 4.1K 
[IMG]1902-Wright-glider-carried-up-hill.jpg04-Jun-2013 23:33 147K 
[IMG]1901-Wright-Glider-on-end-with-Orville_242.jpg04-Jun-2013 23:33 5.0K 
[IMG]1911-Wright-glider-soaring_242.jpg04-Jun-2013 23:33 3.0K 
[IMG]1911-Wright-Glider-being-carried-side-view_242.jpg04-Jun-2013 23:33 4.9K 
[IMG]1899-Wright-Kite-drawing-showing-operation_242.jpg04-Jun-2013 23:33 5.0K 
[IMG]1902-Wright-glider-coming-in-for-landing.jpg04-Jun-2013 23:33 93K 
[IMG]1900-Wright-Glider-wrecked-by-wind_242.jpg04-Jun-2013 23:33 7.6K 
[IMG]1899-Wright-Kite-drawing-showing-operation.jpg04-Jun-2013 23:33 101K 
[IMG]1911-Wright-Glider-being-carried-side-view.jpg04-Jun-2013 23:33 156K 
[IMG]1902-Wright-glider-turning-right.jpg04-Jun-2013 23:33 168K 
[IMG]1902-Wright-glider-kited-from-front.jpg04-Jun-2013 23:33 146K 
[IMG]1901-Wright-Glider-on-end-with-Orville.jpg04-Jun-2013 23:33 281K 
[IMG]1911-Wright-glider-soaring.jpg04-Jun-2013 23:33 85K 
[IMG]1899-Wright-Kite-Two-view.jpg04-Jun-2013 23:33 33K 
[IMG]1902-Wright-glider-with-Lamson-glider-in-distance_242.jpg04-Jun-2013 23:33 4.8K 
[IMG]1901-Wright-Glider-in-flight2.jpg04-Jun-2013 23:33 87K 
[IMG]1900-Wright-Glider-wrecked-by-wind.jpg04-Jun-2013 23:33 83K 
[IMG]1902-Wright-glider-making-a-hard-landing_242.jpg04-Jun-2013 23:33 4.6K 
[IMG]1900-Wright-Glider-kited-at-Kitty-Hawk_242.jpg04-Jun-2013 23:33 6.4K 
[IMG]1902-Wright-glider-kited_242.jpg04-Jun-2013 23:33 5.0K 
[IMG]1901-Wright-glider-flying-2.jpg04-Jun-2013 23:33 83K 
[IMG]1901-Wright-Glider-after-hard-landing.jpeg04-Jun-2013 23:33 39K 
[IMG]1903-1902-Wright-glider-with-twin-tail.jpg21-Apr-2014 02:01 38K 
[IMG]Rolling_1899_Wright_Kite_242.jpg21-Apr-2014 02:01 14K 
[IMG]1911-Orvile-Wright-crashes-in-experimental-glider.jpg21-Apr-2014 02:01 29K 
[IMG]1902-Wright-glider-turning-right_242.jpg21-Apr-2014 02:01 4.0K 
[IMG]Tom-Tate-with-drum-fish-and-1900-Wright-glider_242.jpg21-Apr-2014 02:01 8.8K 
[IMG]1903-1902-Wright-glider-with-twin-tail_242.jpg21-Apr-2014 02:01 4.8K 
[IMG]1902-Glider-roll-pitch-yaw.jpg21-Apr-2014 02:01 140K 
[IMG]Rolling_1899_Wright_Kite.jpg21-Apr-2014 02:01 148K 
[IMG]Kiting-1900-Wright-Glider-replica-at-Kitty-Hawk_242.JPG21-Apr-2014 02:01 11K 
[IMG]1911-Wright-Glider-in-upslope-wind.png21-Apr-2014 02:01 789K 
[IMG]Tom-Tate-with-drum-fish-and-1900-Wright-glider.jpg21-Apr-2014 02:01 61K 
[IMG]Flying_1899_Wright_Kite_at_Kitty_Hawk.jpg21-Apr-2014 02:01 59K 
[IMG]1911-Orvile-Wright-crashes-in-experimental-glider_242.jpg21-Apr-2014 02:01 6.2K 
[IMG]1902-Glider-roll-pitch-yaw_492.jpg21-Apr-2014 02:01 38K 
[IMG]Kite_Video.jpg21-Apr-2014 02:01 16K 
[IMG]1901-Wright-Glider-after-hard-landing_242.jpg21-Apr-2014 02:01 5.1K 
[IMG]Flying_1899_Wright_Kite_at_Kitty_Hawk_242.jpg21-Apr-2014 02:01 19K 
[IMG]1902-Glider-roll-pitch-yaw_242.jpg21-Apr-2014 02:01 15K 
[IMG]1911-Wright-Glider-in-upslope-wind_492.png21-Apr-2014 02:01 129K 
[IMG]Kiting-1900-Wright-Glider-replica-at-Kitty-Hawk.JPG21-Apr-2014 02:01 144K 
[IMG]1901-Wright-Glider-after-hard-landing.jpg21-Apr-2014 02:01 39K 
[IMG]1900_Wright_Glider_front_diagonal_view.jpg21-Apr-2014 02:01 8.8K 
[IMG]1902-Wright-glider-coming-in-for-landing_242.jpg26-Apr-2014 11:04 3.9K